Weather History for Thermopolis, WY

Change the Weather History Date:

Wednesday, April 9, 2014

  Actual Average (KWRL) Record (KWRL)
Temperature  
Mean Temperature 50 °F 44 °F  
Max Temperature 59 °F 58 °F 82 °F (1977)
Min Temperature 41 °F 29 °F 11 °F (1975)
Degree Days  
Heating Degree Days 15 21  
Month to date heating degree days 201  
Since 1 July heating degree days 7087  
Cooling Degree Days 0 0  
Month to date cooling degree days 0  
Year to date cooling degree days 0  
Moisture  
Dew Point 25 °F    
Average Humidity 41    
Maximum Humidity 70    
Minimum Humidity 17    
Precipitation  
Precipitation 0.00 in 0.02 in 0.89 in (2004)
Month to date precipitation 0.17  
Year to date precipitation 1.05  
Sea Level Pressure  
Sea Level Pressure 30.07 in    
Wind  
Wind Speed 19 mph (SW)    
Max Wind Speed 38 mph    
Max Gust Speed 48 mph    
Visibility 10 miles    
Events      
T = Trace of Precipitation, MM = Missing Value Source: NWS Daily Summary

Daily Weather History Graph

Daily Weather History Graph

Search for Another Location

Airport:

Trip Planner

Search our weather history database for the weather conditions in past years. The results will help you decide how hot, cold, wet, or windy it might be!

Date:

Astronomy

Apr. 09, 2014 Rise Set
Actual Time 6:40 AM MDT 7:49 PM MDT
Civil Twilight 6:11 AM MDT 8:18 PM MDT
Nautical Twilight 5:36 AM MDT 8:53 PM MDT
Astronomical Twilight 4:59 AM MDT 9:30 PM MDT
Moon 2:31 PM MDT (4/9) 3:40 AM MDT (4/9)
Length of Visible Light 14h 07m
Length of Day
13h 08m
Waxing Gibbous, 72% of the Moon is Illuminated
Apr 9
Waxing Gibbous
Apr 15
Full
Apr 22
Last Quarter
Apr 29
New
May 6
First Quarter

Hourly Weather History & Observations

Time (MDT) Temp. Windchill Dew Point Humidity Pressure Visibility Wind Dir Wind Speed Gust Speed Precip Events Conditions
12:15 AM 50.0 °F - 15.8 °F 26% 30.18 in 10.0 mi WSW 8.1 mph - N/A   Clear
12:35 AM 50.0 °F - 17.6 °F 28% 30.19 in 10.0 mi WSW 11.5 mph - N/A   Clear
12:55 AM 48.2 °F - 23.0 °F 37% 30.18 in 10.0 mi SSW 15.0 mph - N/A   Clear
1:15 AM 46.4 °F 40.7 °F 26.6 °F 46% 30.18 in 10.0 mi SW 12.7 mph - N/A   Clear
1:35 AM 46.4 °F 39.0 °F 24.8 °F 43% 30.17 in 10.0 mi SW 19.6 mph 25.3 mph N/A   Clear
1:55 AM 48.2 °F - 26.6 °F 43% 30.15 in 10.0 mi WSW 32.2 mph 41.4 mph N/A   Clear
2:15 AM 48.2 °F - 26.6 °F 43% 30.15 in 10.0 mi WSW 34.5 mph 46.0 mph N/A   Clear
2:35 AM 48.2 °F - 26.6 °F 43% 30.15 in 10.0 mi WSW 29.9 mph 41.4 mph N/A   Clear
2:55 AM 46.4 °F 37.7 °F 26.6 °F 46% 30.16 in 10.0 mi WSW 26.5 mph 33.4 mph N/A   Clear
3:15 AM 48.2 °F - 26.6 °F 43% 30.12 in 10.0 mi SW 33.4 mph 46.0 mph N/A   Clear
3:55 AM 50.0 °F - 24.8 °F 37% 30.12 in 10.0 mi SW 38.0 mph 48.3 mph N/A   Clear
4:15 AM 50.0 °F - 24.8 °F 37% 30.13 in 10.0 mi SW 31.1 mph 41.4 mph N/A   Clear
4:35 AM 48.2 °F - 26.6 °F 43% 30.13 in 10.0 mi SW 29.9 mph 38.0 mph N/A   Clear
4:55 AM 46.4 °F 38.3 °F 26.6 °F 46% 30.12 in 10.0 mi SW 23.0 mph 31.1 mph N/A   Clear
5:15 AM 46.4 °F 37.9 °F 26.6 °F 46% 30.11 in 10.0 mi SW 25.3 mph 32.2 mph N/A   Clear
5:35 AM 48.2 °F - 24.8 °F 40% 30.11 in 10.0 mi SW 21.9 mph 32.2 mph N/A   Clear
5:55 AM 48.2 °F - 24.8 °F 40% 30.10 in 10.0 mi SW 23.0 mph 33.4 mph N/A   Clear
6:15 AM 48.2 °F - 26.6 °F 43% 30.10 in 10.0 mi SSW 23.0 mph 28.8 mph N/A   Clear
6:35 AM 48.2 °F - 26.6 °F 43% 30.10 in 10.0 mi SW 24.2 mph 32.2 mph N/A   Clear
6:55 AM 48.2 °F - 26.6 °F 43% 30.11 in 10.0 mi SW 23.0 mph 28.8 mph N/A   Clear
7:15 AM 48.2 °F - 26.6 °F 43% 30.11 in 10.0 mi SW 27.6 mph 33.4 mph N/A   Clear
7:35 AM 48.2 °F - 26.6 °F 43% 30.11 in 10.0 mi SW 27.6 mph 36.8 mph N/A   Clear
7:55 AM 48.2 °F - 26.6 °F 43% 30.12 in 10.0 mi SW 23.0 mph 29.9 mph N/A   Clear
8:15 AM 46.4 °F 40.4 °F 26.6 °F 46% 30.12 in 10.0 mi SSW 13.8 mph 25.3 mph N/A   Clear
8:35 AM 46.4 °F 39.0 °F 26.6 °F 46% 30.11 in 10.0 mi SSW 19.6 mph 24.2 mph N/A   Clear
8:55 AM 46.4 °F 39.2 °F 26.6 °F 46% 30.10 in 10.0 mi SSW 18.4 mph 23.0 mph N/A   Clear
9:15 AM 46.4 °F 40.7 °F 26.6 °F 46% 30.10 in 10.0 mi SW 12.7 mph 19.6 mph N/A   Clear
9:35 AM 46.4 °F 41.5 °F 26.6 °F 46% 30.10 in 10.0 mi SSW 10.4 mph 18.4 mph N/A   Clear
9:55 AM 46.4 °F 44.3 °F 26.6 °F 46% 30.10 in 10.0 mi SSW 4.6 mph - N/A   Clear
10:15 AM 46.4 °F 42.4 °F 28.4 °F 50% 30.09 in 10.0 mi South 8.1 mph - N/A   Clear
10:35 AM 50.0 °F - 28.4 °F 43% 30.09 in 10.0 mi South 12.7 mph 18.4 mph N/A   Clear
10:55 AM 51.8 °F - 26.6 °F 38% 30.08 in 10.0 mi South 10.4 mph - N/A   Clear
11:15 AM 51.8 °F - 28.4 °F 41% 30.07 in 10.0 mi SE 10.4 mph - N/A   Clear
11:35 AM 51.8 °F - 26.6 °F 38% 30.06 in 10.0 mi SE 12.7 mph - N/A   Clear
11:55 AM 51.8 °F - 26.6 °F 38% 30.06 in 10.0 mi SE 13.8 mph 18.4 mph N/A   Clear
12:15 PM 51.8 °F - 24.8 °F 35% 30.05 in 10.0 mi SE 15.0 mph - N/A   Clear
12:35 PM 53.6 °F - 26.6 °F 35% 30.05 in 10.0 mi SSE 15.0 mph 21.9 mph N/A   Clear
12:55 PM 55.4 °F - 23.0 °F 29% 30.05 in 10.0 mi South 9.2 mph 19.6 mph N/A   Clear
1:15 PM 53.6 °F - 23.0 °F 30% 30.04 in 10.0 mi SSE 9.2 mph 18.4 mph N/A   Scattered Clouds
1:35 PM 55.4 °F - 23.0 °F 29% 30.03 in 10.0 mi SSW 15.0 mph 18.4 mph N/A   Scattered Clouds
1:55 PM 55.4 °F - 21.2 °F 26% 30.02 in 10.0 mi SSW 20.7 mph 28.8 mph N/A   Scattered Clouds
2:15 PM 59.0 °F - 19.4 °F 22% 30.01 in 10.0 mi SSW 25.3 mph 42.6 mph N/A   Clear
2:35 PM 59.0 °F - 19.4 °F 22% 29.99 in 10.0 mi SSW 31.1 mph 38.0 mph N/A   Clear
2:55 PM 59.0 °F - 17.6 °F 20% 29.98 in 10.0 mi SSW 32.2 mph 46.0 mph N/A   Clear
3:15 PM 59.0 °F - 14.0 °F 17% 29.99 in 10.0 mi SW 28.8 mph 43.7 mph N/A   Clear
3:35 PM 59.0 °F - 17.6 °F 20% 29.99 in 10.0 mi SW 23.0 mph 40.3 mph N/A   Clear
3:55 PM 59.0 °F - 17.6 °F 20% 29.98 in 10.0 mi SW 24.2 mph 36.8 mph N/A   Clear
4:15 PM 59.0 °F - 17.6 °F 20% 29.97 in 10.0 mi SW 32.2 mph 42.6 mph N/A   Clear
4:35 PM 59.0 °F - 15.8 °F 19% 29.97 in 10.0 mi SW 31.1 mph 42.6 mph N/A   Clear
4:55 PM 57.2 °F - 17.6 °F 21% 29.97 in 10.0 mi SW 26.5 mph 41.4 mph N/A   Clear
5:15 PM 55.4 °F - 17.6 °F 23% 29.98 in 10.0 mi WSW 25.3 mph 34.5 mph N/A   Clear
5:35 PM 57.2 °F - 17.6 °F 21% 29.98 in 10.0 mi SW 19.6 mph 35.7 mph N/A   Clear
5:55 PM 55.4 °F - 19.4 °F 25% 29.98 in 10.0 mi SW 23.0 mph 40.3 mph N/A   Clear
6:15 PM 55.4 °F - 17.6 °F 23% 29.98 in 10.0 mi SW 26.5 mph 38.0 mph N/A   Scattered Clouds
6:35 PM 53.6 °F - 21.2 °F 28% 29.99 in 10.0 mi NW 28.8 mph 34.5 mph N/A   Mostly Cloudy
6:55 PM 46.4 °F 38.3 °F 32.0 °F 57% 30.00 in 10.0 mi NNW 23.0 mph 35.7 mph N/A   Overcast
7:15 PM 46.4 °F 37.9 °F 32.0 °F 57% 30.00 in 10.0 mi North 25.3 mph - N/A   Overcast
7:35 PM 44.6 °F 36.9 °F 32.0 °F 61% 30.00 in 10.0 mi NNW 18.4 mph - N/A   Overcast
7:55 PM 44.6 °F 36.6 °F 32.0 °F 61% 30.00 in 10.0 mi NNW 19.6 mph 26.5 mph N/A   Mostly Cloudy
8:15 PM 42.8 °F 33.8 °F 32.0 °F 66% 30.00 in 10.0 mi North 21.9 mph 27.6 mph N/A   Scattered Clouds
8:35 PM 42.8 °F 38.0 °F 32.0 °F 66% 30.02 in 10.0 mi North 8.1 mph 23.0 mph N/A   Clear
8:55 PM 44.6 °F 38.8 °F 30.2 °F 57% 30.03 in 10.0 mi NNW 11.5 mph 31.1 mph N/A   Scattered Clouds
9:15 PM 44.6 °F 38.8 °F 30.2 °F 57% 30.03 in 10.0 mi WNW 11.5 mph 20.7 mph N/A   Mostly Cloudy
9:35 PM 46.4 °F 38.5 °F 26.6 °F 46% 30.03 in 10.0 mi WNW 21.9 mph 38.0 mph N/A   Mostly Cloudy
9:55 PM 42.8 °F 37.5 °F 32.0 °F 66% 30.04 in 10.0 mi NW 9.2 mph 16.1 mph N/A   Mostly Cloudy
10:15 PM 44.6 °F 38.1 °F 30.2 °F 57% 30.05 in 10.0 mi WNW 13.8 mph 19.6 mph N/A   Scattered Clouds
10:35 PM 44.6 °F 38.1 °F 30.2 °F 57% 30.05 in 10.0 mi WNW 13.8 mph 19.6 mph N/A   Scattered Clouds
10:55 PM 44.6 °F 38.8 °F 28.4 °F 53% 30.05 in 10.0 mi SW 11.5 mph 20.7 mph N/A   Mostly Cloudy
11:15 PM 44.6 °F 37.4 °F 26.6 °F 49% 30.05 in 10.0 mi SSW 16.1 mph 20.7 mph N/A   Mostly Cloudy
11:35 PM 41.0 °F 34.3 °F 32.0 °F 70% 30.05 in 10.0 mi SE 11.5 mph - N/A   Overcast
11:55 PM 41.0 °F 34.7 °F 32.0 °F 70% 30.06 in 10.0 mi SE 10.4 mph - N/A   Mostly Cloudy